AIC142 VOHS-VABB

Flight info

Callsign AIC142
Flight time N/A
Altitude 38000
Route TAMIV5 APUSU W18 MELAX L505 OPAKA EMRAK2A
Aircraft A20N/M-SDE2E3FGHIRWXY/LB1

Departure

Time 2026-04-27 14:37
Airport Rajiv Gandhi International Airport (VOHS)

Arrival

Time N/A
Airport Chhatrapati Shivaji Maharaj International Airport (VABB)
Time Latitude Longitude Altitude Speed Heading
2026-04-27 14:25 17.23351 78.42069 1998 ft 0 kts 358°
2026-04-27 14:31 17.23358 78.42069 1998 ft 2 kts
2026-04-27 14:32 17.23361 78.42072 1998 ft 0 kts 38°
2026-04-27 14:32 17.23367 78.42078 1998 ft 3 kts 41°
2026-04-27 14:32 17.23374 78.42094 1997 ft 2 kts 99°
2026-04-27 14:32 17.23372 78.42107 1998 ft 1 kts 99°
2026-04-27 14:33 17.23370 78.42119 1998 ft 8 kts 99°
2026-04-27 14:33 17.23330 78.42275 1998 ft 37 kts 102°
2026-04-27 14:33 17.23328 78.42566 1998 ft 41 kts 89°
2026-04-27 14:33 17.23331 78.42862 1998 ft 41 kts 89°
2026-04-27 14:34 17.23340 78.43139 1997 ft 36 kts 80°
2026-04-27 14:34 17.23359 78.43379 1997 ft 25 kts 91°
2026-04-27 14:34 17.23364 78.43562 1997 ft 23 kts 86°
2026-04-27 14:34 17.23339 78.43699 1997 ft 13 kts 150°
2026-04-27 14:35 17.23288 78.43698 1997 ft 7 kts 181°
2026-04-27 14:35 17.23217 78.43698 1994 ft 11 kts 180°
2026-04-27 14:35 17.23131 78.43698 1995 ft 13 kts 184°
2026-04-27 14:35 17.23089 78.43629 1995 ft 13 kts 269°
2026-04-27 14:36 17.23088 78.43501 1994 ft 37 kts 269°
2026-04-27 14:36 17.23068 78.42981 1994 ft 103 kts 268°
2026-04-27 14:36 17.23072 78.42052 1997 ft 153 kts 269°
2026-04-27 14:36 17.23047 78.40836 2304 ft 168 kts 268°
2026-04-27 14:37 17.23018 78.39648 2963 ft 162 kts 266°
2026-04-27 14:37 17.22943 78.38462 3549 ft 164 kts 265°
2026-04-27 14:37 17.22863 78.37256 4039 ft 172 kts 265°
2026-04-27 14:37 17.22797 78.35935 4361 ft 192 kts 266°
2026-04-27 14:38 17.22750 78.34463 4725 ft 213 kts 268°
2026-04-27 14:38 17.22786 78.32819 5095 ft 238 kts 277°
2026-04-27 14:38 17.23189 78.31058 5622 ft 261 kts 287°
2026-04-27 14:38 17.23754 78.29191 6330 ft 273 kts 287°
2026-04-27 14:39 17.24319 78.27286 7282 ft 276 kts 286°
2026-04-27 14:39 17.24887 78.25348 8208 ft 280 kts 286°
2026-04-27 14:39 17.25453 78.23409 9122 ft 284 kts 286°
2026-04-27 14:39 17.26031 78.21418 10016 ft 288 kts 286°
2026-04-27 14:40 17.26627 78.19369 10617 ft 305 kts 286°
2026-04-27 14:40 17.27267 78.17161 10940 ft 329 kts 286°
2026-04-27 14:40 17.27950 78.14809 11454 ft 342 kts 286°
2026-04-27 14:40 17.28645 78.12416 12282 ft 346 kts 286°
2026-04-27 14:41 17.29350 78.09984 13078 ft 350 kts 286°
2026-04-27 14:41 17.30061 78.07534 13858 ft 354 kts 286°
2026-04-27 14:41 17.30782 78.05046 14614 ft 358 kts 286°
2026-04-27 14:41 17.31509 78.02538 15351 ft 362 kts 286°
2026-04-27 14:42 17.32243 78.00002 16066 ft 366 kts 286°
2026-04-27 14:42 17.32979 77.97458 16756 ft 370 kts 286°
2026-04-27 14:42 17.33729 77.94865 17432 ft 374 kts 286°
2026-04-27 14:42 17.34485 77.92249 18087 ft 378 kts 286°
2026-04-27 14:43 17.35250 77.89600 18727 ft 382 kts 286°
2026-04-27 14:43 17.36021 77.86929 19353 ft 386 kts 286°
2026-04-27 14:43 17.36577 77.85143 19753 ft 388 kts 292°
2026-04-27 14:43 17.38267 77.81772 20567 ft 393 kts 298°
2026-04-27 14:44 17.39615 77.79262 21137 ft 397 kts 299°
2026-04-27 14:44 17.40516 77.77590 21517 ft 399 kts 299°
2026-04-27 14:44 17.41883 77.75044 22078 ft 403 kts 299°
2026-04-27 14:44 17.43256 77.72477 22623 ft 406 kts 298°
2026-04-27 14:45 17.44640 77.69882 23155 ft 409 kts 298°
2026-04-27 14:45 17.46487 77.66409 23845 ft 414 kts 298°
2026-04-27 14:45 17.47435 77.64625 24188 ft 416 kts 298°
2026-04-27 14:45 17.49305 77.61105 24835 ft 420 kts 298°
2026-04-27 14:46 17.50271 77.59284 25159 ft 422 kts 298°
2026-04-27 14:46 17.51690 77.56611 25615 ft 426 kts 298°
2026-04-27 14:46 17.53139 77.53879 26067 ft 429 kts 298°
2026-04-27 14:46 17.54590 77.51142 26499 ft 431 kts 298°
2026-04-27 14:47 17.56053 77.48382 26920 ft 434 kts 298°
2026-04-27 14:47 17.57521 77.45610 27328 ft 437 kts 298°
2026-04-27 14:47 17.59003 77.42811 27716 ft 440 kts 298°
2026-04-27 14:47 17.60493 77.39995 27959 ft 443 kts 298°
2026-04-27 14:48 17.62004 77.37138 28012 ft 453 kts 298°
2026-04-27 14:48 17.65117 77.31249 28002 ft 474 kts 298°
2026-04-27 14:48 17.66733 77.28191 28000 ft 484 kts 298°
2026-04-27 14:49 17.70036 77.21935 28014 ft 492 kts 298°
2026-04-27 14:49 17.73351 77.15649 28000 ft 492 kts 298°
2026-04-27 14:50 17.76645 77.09397 28009 ft 492 kts 298°
2026-04-27 14:50 17.79959 77.03101 28009 ft 492 kts 298°
2026-04-27 14:51 17.83264 76.96817 28003 ft 492 kts 298°
2026-04-27 14:51 17.86574 76.90517 28008 ft 492 kts 298°
2026-04-27 14:52 17.89855 76.84264 28000 ft 492 kts 298°
2026-04-27 14:52 17.91504 76.81120 27999 ft 492 kts 298°
2026-04-27 14:52 17.93155 76.77970 28012 ft 492 kts 298°
2026-04-27 14:53 17.96459 76.71662 28012 ft 492 kts 298°
2026-04-27 14:53 17.98107 76.68513 27998 ft 492 kts 298°
2026-04-27 14:53 17.99757 76.65358 28002 ft 492 kts 298°
2026-04-27 14:54 18.03031 76.59096 28009 ft 492 kts 298°
2026-04-27 14:54 18.04697 76.55906 28000 ft 492 kts 298°
2026-04-27 14:54 18.06323 76.52793 27996 ft 492 kts 298°
2026-04-27 14:55 18.09616 76.46490 28012 ft 492 kts 298°
2026-04-27 14:55 18.12907 76.40180 28006 ft 492 kts 298°
2026-04-27 14:56 18.14551 76.37022 27998 ft 492 kts 298°
2026-04-27 14:56 18.16195 76.33863 28001 ft 492 kts 298°
2026-04-27 14:56 18.19478 76.27550 28011 ft 492 kts 298°
2026-04-27 14:57 18.21123 76.24384 28000 ft 492 kts 298°
2026-04-27 14:57 18.22743 76.21266 28004 ft 492 kts 298°
2026-04-27 14:57 18.26020 76.14951 28010 ft 492 kts 298°
2026-04-27 14:58 18.29297 76.08631 28008 ft 492 kts 298°
2026-04-27 14:58 18.30937 76.05464 27997 ft 492 kts 298°
2026-04-27 14:58 18.32574 76.02303 27998 ft 492 kts 298°
2026-04-27 14:59 18.35850 75.95972 28014 ft 492 kts 298°
2026-04-27 14:59 18.39124 75.89639 28001 ft 492 kts 298°
2026-04-27 15:00 18.42394 75.83307 28006 ft 492 kts 298°
2026-04-27 15:00 18.45640 75.77015 28013 ft 492 kts 298°
2026-04-27 15:01 18.48904 75.70680 28001 ft 492 kts 298°
2026-04-27 15:01 18.50537 75.67509 28000 ft 492 kts 298°
2026-04-27 15:01 18.52167 75.64344 28011 ft 492 kts 298°
2026-04-27 15:02 18.55432 75.57994 28004 ft 492 kts 298°
2026-04-27 15:02 18.58690 75.51655 28006 ft 492 kts 298°
2026-04-27 15:03 18.61947 75.45308 28012 ft 492 kts 298°
2026-04-27 15:03 18.63578 75.42129 28000 ft 492 kts 298°
2026-04-27 15:03 18.65201 75.38961 28000 ft 492 kts 298°
2026-04-27 15:04 18.68453 75.32613 28008 ft 492 kts 298°
2026-04-27 15:04 18.71703 75.26262 28004 ft 492 kts 298°
2026-04-27 15:05 18.73328 75.23083 27998 ft 492 kts 298°
2026-04-27 15:05 18.74950 75.19909 28001 ft 492 kts 298°
2026-04-27 15:05 18.78180 75.13584 28014 ft 492 kts 298°
2026-04-27 15:06 18.79823 75.10363 28000 ft 492 kts 298°
2026-04-27 15:06 18.81444 75.07184 27998 ft 492 kts 298°
2026-04-27 15:06 18.84664 75.00865 28009 ft 492 kts 298°
2026-04-27 15:07 18.87906 74.94496 28002 ft 492 kts 298°
2026-04-27 15:07 18.89524 74.91314 28000 ft 492 kts 298°
2026-04-27 15:07 18.91144 74.88128 28003 ft 492 kts 298°
2026-04-27 15:08 18.94379 74.81760 28012 ft 492 kts 298°
2026-04-27 15:08 18.97612 74.75387 28000 ft 492 kts 298°
2026-04-27 15:09 19.00844 74.69011 28008 ft 492 kts 298°
2026-04-27 15:09 19.04073 74.62633 28008 ft 492 kts 298°
2026-04-27 15:10 19.07278 74.56297 27998 ft 492 kts 298°
2026-04-27 15:10 19.10506 74.49909 28011 ft 492 kts 298°
2026-04-27 15:11 19.13730 74.43520 28000 ft 492 kts 297°
2026-04-27 15:11 19.16951 74.37132 28008 ft 492 kts 297°
2026-04-27 15:12 19.20168 74.30744 28009 ft 492 kts 297°
2026-04-27 15:12 19.23383 74.24354 27998 ft 492 kts 297°
2026-04-27 15:13 19.26601 74.17950 28013 ft 492 kts 297°
2026-04-27 15:13 19.29790 74.11598 28001 ft 492 kts 297°
2026-04-27 15:14 19.31396 74.08396 28000 ft 492 kts 297°
2026-04-27 15:14 19.33004 74.05189 28008 ft 492 kts 297°
2026-04-27 15:14 19.36210 73.98789 28011 ft 492 kts 297°
2026-04-27 15:15 19.39200 73.92264 28008 ft 491 kts 288°
2026-04-27 15:15 19.39949 73.88743 28005 ft 491 kts 276°
2026-04-27 15:15 19.40028 73.85138 28004 ft 491 kts 265°
2026-04-27 15:16 19.39436 73.81590 28005 ft 490 kts 253°
2026-04-27 15:16 19.38208 73.78266 28012 ft 490 kts 242°
2026-04-27 15:16 19.35482 73.71673 28010 ft 490 kts 257°
2026-04-27 15:17 19.35018 73.68100 28007 ft 489 kts 268°
2026-04-27 15:17 19.35222 73.64589 28010 ft 469 kts 279°
2026-04-27 15:17 19.36064 73.61340 28007 ft 448 kts 291°
2026-04-27 15:17 19.37486 73.58485 27999 ft 429 kts 304°
2026-04-27 15:18 19.39422 73.56171 28003 ft 412 kts 319°
2026-04-27 15:18 19.41760 73.54547 28002 ft 394 kts 335°
2026-04-27 15:18 19.44325 73.53745 27998 ft 377 kts 353°
2026-04-27 15:18 19.46877 73.53841 28008 ft 360 kts 13°
2026-04-27 15:19 19.49125 73.54823 28001 ft 342 kts 35°
2026-04-27 15:19 19.50783 73.56529 28006 ft 340 kts 57°
2026-04-27 15:19 19.51744 73.58839 28001 ft 346 kts 79°
2026-04-27 15:19 19.51853 73.61374 28010 ft 346 kts 97°
2026-04-27 15:20 19.50955 73.66356 28001 ft 344 kts 104°
2026-04-27 15:20 19.49779 73.71273 28005 ft 344 kts 105°
2026-04-27 15:21 19.48459 73.76143 28014 ft 344 kts 108°
2026-04-27 15:21 19.46952 73.80954 28001 ft 344 kts 110°
2026-04-27 15:22 19.46096 73.83322 28000 ft 344 kts 113°
2026-04-27 15:22 19.45338 73.85688 28010 ft 344 kts 102°
2026-04-27 15:22 19.44400 73.90648 28017 ft 343 kts 114°
2026-04-27 15:23 19.42013 73.95031 28010 ft 343 kts 123°
2026-04-27 15:23 19.40610 73.97058 28008 ft 342 kts 137°
2026-04-27 15:23 19.38618 73.98482 28008 ft 353 kts 159°
2026-04-27 15:24 19.36195 73.99065 27997 ft 365 kts 179°
2026-04-27 15:24 19.33641 73.98729 27999 ft 378 kts 198°
2026-04-27 15:24 19.31238 73.97508 28007 ft 391 kts 216°
2026-04-27 15:24 19.29241 73.95553 28009 ft 404 kts 232°
2026-04-27 15:25 19.27763 73.92978 28014 ft 418 kts 247°
2026-04-27 15:25 19.26936 73.89987 27999 ft 431 kts 261°
2026-04-27 15:25 19.26811 73.86789 28000 ft 440 kts 274°
2026-04-27 15:25 19.27112 73.83563 27924 ft 439 kts 275°
2026-04-27 15:26 19.27234 73.80344 27551 ft 436 kts 269°
2026-04-27 15:26 19.27042 73.77157 27036 ft 433 kts 263°
2026-04-27 15:26 19.26623 73.74013 26463 ft 429 kts 260°
2026-04-27 15:26 19.26085 73.70915 25875 ft 425 kts 259°
2026-04-27 15:27 19.25503 73.67856 25293 ft 422 kts 258°
2026-04-27 15:27 19.24913 73.64829 24711 ft 418 kts 258°
2026-04-27 15:27 19.24329 73.61831 24132 ft 414 kts 258°
2026-04-27 15:27 19.23777 73.58977 23577 ft 411 kts 258°
2026-04-27 15:28 19.23203 73.55995 22995 ft 407 kts 258°
2026-04-27 15:28 19.22635 73.53036 22416 ft 403 kts 258°
2026-04-27 15:28 19.22080 73.50144 21840 ft 400 kts 258°
2026-04-27 15:28 19.21528 73.47272 21275 ft 396 kts 258°
2026-04-27 15:29 19.20784 73.44526 20699 ft 393 kts 245°
2026-04-27 15:29 19.19333 73.42107 20112 ft 389 kts 228°
2026-04-27 15:29 19.17274 73.40286 19540 ft 385 kts 210°
2026-04-27 15:29 19.14803 73.39238 18958 ft 382 kts 192°
2026-04-27 15:30 19.12171 73.38918 18392 ft 379 kts 183°
2026-04-27 15:30 19.09544 73.38854 17840 ft 376 kts 180°
2026-04-27 15:30 19.06934 73.38850 17290 ft 373 kts 180°
2026-04-27 15:30 19.04349 73.38862 16749 ft 370 kts 180°
2026-04-27 15:31 19.01782 73.38865 16207 ft 367 kts 183°
2026-04-27 15:31 18.99310 73.38311 15650 ft 363 kts 203°
2026-04-27 15:31 18.97196 73.36890 15092 ft 360 kts 223°
2026-04-27 15:31 18.95707 73.34784 14547 ft 357 kts 244°
2026-04-27 15:32 18.95018 73.32273 13874 ft 358 kts 264°
2026-04-27 15:32 18.95125 73.29631 12910 ft 367 kts 282°
2026-04-27 15:32 18.96072 73.27091 11679 ft 381 kts 301°
2026-04-27 15:32 18.97141 73.25593 10832 ft 390 kts 313°
2026-04-27 15:33 19.00098 73.23342 9337 ft 400 kts 332°
2026-04-27 15:33 19.02558 73.21975 8496 ft 397 kts 332°
2026-04-27 15:33 19.04203 73.21061 7967 ft 394 kts 332°
2026-04-27 15:33 19.07380 73.19276 6931 ft 388 kts 329°
2026-04-27 15:34 19.08821 73.18175 6411 ft 384 kts 317°
2026-04-27 15:34 19.10879 73.15176 5435 ft 377 kts 292°
2026-04-27 15:34 19.11449 73.12534 5095 ft 361 kts 272°
2026-04-27 15:34 19.11323 73.10813 4897 ft 351 kts 258°
2026-04-27 15:35 19.10408 73.08482 4481 ft 341 kts 234°
2026-04-27 15:35 19.08723 73.06825 4295 ft 324 kts 210°
2026-04-27 15:35 19.06667 73.06127 4078 ft 302 kts 187°
2026-04-27 15:35 19.04641 73.05980 3882 ft 282 kts 181°
2026-04-27 15:36 19.02731 73.05956 3624 ft 267 kts 181°
2026-04-27 15:36 19.00913 73.06098 3361 ft 263 kts 168°
2026-04-27 15:36 18.99126 73.06539 3200 ft 262 kts 167°
2026-04-27 15:36 18.97362 73.07025 3197 ft 263 kts 158°
2026-04-27 15:37 18.95880 73.08115 3199 ft 257 kts 130°
2026-04-27 15:37 18.94858 73.09570 3196 ft 236 kts 126°
2026-04-27 15:37 18.94021 73.10952 3184 ft 212 kts 110°
2026-04-27 15:37 18.93646 73.12367 3219 ft 190 kts 104°
2026-04-27 15:38 18.93350 73.13680 3188 ft 178 kts 104°
2026-04-27 15:38 18.93058 73.15047 3202 ft 201 kts 97°
2026-04-27 15:38 18.93293 73.16455 3204 ft 202 kts 60°
2026-04-27 15:38 18.94302 73.17459 3203 ft 202 kts 23°
2026-04-27 15:39 18.95644 73.17892 3200 ft 202 kts 14°
2026-04-27 15:39 18.97002 73.18265 3197 ft 202 kts 14°
2026-04-27 15:39 18.98363 73.18636 3197 ft 201 kts 14°
2026-04-27 15:39 18.99719 73.19006 3201 ft 202 kts 14°
2026-04-27 15:40 19.01080 73.19377 3200 ft 201 kts 14°
2026-04-27 15:40 19.02436 73.19747 3201 ft 201 kts 14°
2026-04-27 15:40 19.03797 73.20107 3201 ft 201 kts
2026-04-27 15:40 19.05158 73.19930 3202 ft 200 kts 333°
2026-04-27 15:41 19.06200 73.18993 3196 ft 198 kts 295°
2026-04-27 15:41 19.06320 73.17601 3201 ft 197 kts 252°
2026-04-27 15:41 19.06013 73.16196 3198 ft 197 kts 272°
2026-04-27 15:41 19.06269 73.14771 3187 ft 199 kts 283°
2026-04-27 15:42 19.06596 73.13351 3005 ft 194 kts 282°
2026-04-27 15:42 19.06617 73.11935 3017 ft 198 kts 263°
2026-04-27 15:42 19.06780 73.10505 3013 ft 197 kts 285°
2026-04-27 15:42 19.07170 73.09118 3012 ft 194 kts 286°
2026-04-27 15:43 19.07542 73.07812 3000 ft 175 kts 286°
2026-04-27 15:43 19.07873 73.06658 3007 ft 152 kts 286°
2026-04-27 15:43 19.08121 73.05650 2990 ft 137 kts 269°
2026-04-27 15:43 19.07763 73.04722 3004 ft 140 kts 244°
2026-04-27 15:44 19.07369 73.03812 2996 ft 137 kts 225°
2026-04-27 15:44 19.06782 73.03043 3200 ft 141 kts 250°
2026-04-27 15:44 19.06756 73.02043 3202 ft 139 kts 275°
2026-04-27 15:44 19.06848 73.01032 3201 ft 138 kts 274°